Rochelle, IL

5:11 AM CST on November 17, 2019 (GMT -0600)
Rochelle

Weather History for KRPJ - August, 2019

Change the Weather History Date:

Tuesday, August 27, 2019

  Actual Average (WUND) Record (WUND)
Temperature  
Mean Temperature 68 °F -  
Max Temperature 77 °F - - (-1)
Min Temperature 57 °F - - (-1)
Cooling Degree Days 2    
Growing Degree Days 18 (Base 50)    
Moisture  
Dew Point 62 °F    
Average Humidity 84    
Maximum Humidity 100    
Minimum Humidity 55    
Precipitation  
Precipitation 0.00 in - - ()
Sea Level Pressure  
Sea Level Pressure 29.85 in    
Wind  
Wind Speed 8 mph ()    
Max Wind Speed 17 mph    
Max Gust Speed 23 mph    
Visibility 8.7 miles    
Events      
Averages and records for this station are not official NWS values.
T = Trace of Precipitation, MM = Missing Value Source: Averaged Metar Reports

Daily Weather History Graph

Daily Weather History Graph

Search for Another Location

Airport or City:

Astronomy

Aug. 27, 2019 Rise Set
Actual Time 6:16 AM CDT 7:38 PM CDT
Civil Twilight 5:47 AM CDT 8:07 PM CDT
Nautical Twilight 5:12 AM CDT 8:42 PM CDT
Astronomical Twilight 4:35 AM CDT 9:18 PM CDT
Moon 2:37 AM CDT (8/27) 6:02 PM CDT (8/27)
Length of Visible Light 14h 19m
Length of Day
13h 21m
Waning Crescent, 11% of the Moon is Illuminated
Aug 27
Waning Crescent
Aug 30
New
Sep 5
First Quarter
Sep 13
Full
Sep 21
Last Quarter

Hourly Weather History & Observations

Time (CDT) Temp. Dew Point Humidity Pressure Visibility Wind Dir Wind Speed Gust Speed Precip Events Conditions
12:15 AM 66.9 °F 66.6 °F 99% 29.74 in 7.0 mi WSW 4.6 mph - N/A   Overcast
12:35 AM 66.2 °F 66.2 °F 100% 29.76 in 5.0 mi WSW 4.6 mph - N/A   Overcast
12:55 AM 65.3 °F 65.3 °F 100% 29.76 in 5.0 mi WSW 3.5 mph - N/A   Overcast
1:15 AM 65.7 °F 65.7 °F 100% 29.77 in 5.0 mi WSW 4.6 mph - N/A   Overcast
1:35 AM 65.5 °F 65.5 °F 100% 29.78 in 5.0 mi WSW 5.8 mph - N/A   Overcast
1:55 AM 66.2 °F 66.2 °F 100% 29.78 in 7.0 mi West 10.4 mph - N/A   Mostly Cloudy
2:15 AM 65.7 °F 65.7 °F 100% 29.78 in 10.0 mi West 10.4 mph - N/A   Mostly Cloudy
2:35 AM 64.8 °F 64.8 °F 100% 29.78 in 7.0 mi West 9.2 mph - N/A   Scattered Clouds
2:55 AM 64.4 °F 64.4 °F 100% 29.78 in 7.0 mi West 5.8 mph - N/A   Clear
3:15 AM 63.7 °F 63.7 °F 100% 29.79 in 7.0 mi West 8.1 mph - N/A   Clear
3:35 AM 63.0 °F 63.0 °F 100% 29.79 in 7.0 mi West 8.1 mph - N/A   Clear
3:55 AM 63.1 °F 63.1 °F 100% 29.80 in 10.0 mi West 8.1 mph - N/A   Clear
4:15 AM 63.0 °F 63.0 °F 100% 29.80 in 10.0 mi West 8.1 mph - N/A   Scattered Clouds
4:35 AM 62.8 °F 62.8 °F 100% 29.80 in 10.0 mi West 8.1 mph - N/A   Mostly Cloudy
4:55 AM 62.6 °F 62.6 °F 100% 29.80 in 7.0 mi West 8.1 mph - N/A   Mostly Cloudy
5:15 AM 62.4 °F 62.4 °F 100% 29.80 in 10.0 mi West 6.9 mph - N/A   Mostly Cloudy
5:35 AM 62.1 °F 62.1 °F 100% 29.80 in 7.0 mi West 4.6 mph - N/A   Overcast
5:55 AM 61.9 °F 61.9 °F 100% 29.81 in 5.0 mi SW 3.5 mph - N/A   Overcast
6:15 AM 61.5 °F 61.5 °F 100% 29.82 in 5.0 mi SW 3.5 mph - N/A   Overcast
6:35 AM 61.5 °F 61.5 °F 100% 29.82 in 4.0 mi Calm Calm - N/A   Overcast
6:55 AM 62.1 °F 62.1 °F 100% 29.83 in 3.0 mi WSW 5.8 mph - N/A   Overcast
7:15 AM 63.1 °F 63.1 °F 100% 29.84 in 2.0 mi WSW 10.4 mph - N/A   Overcast
7:35 AM 63.7 °F 63.7 °F 100% 29.84 in 2.5 mi WSW 10.4 mph - N/A   Overcast
7:50 AM 63.7 °F 63.7 °F 100% 29.84 in 4.0 mi WSW 10.4 mph - N/A   Overcast
8:15 AM 64.4 °F 64.4 °F 100% 29.84 in 5.0 mi WSW 10.4 mph - N/A   Overcast
8:40 AM 64.8 °F 64.8 °F 100% 29.84 in 7.0 mi WSW 8.1 mph - N/A   Overcast
8:55 AM 65.5 °F 65.3 °F 99% 29.84 in 10.0 mi WSW 8.1 mph - N/A   Overcast
9:15 AM 66.2 °F 65.1 °F 96% 29.85 in 10.0 mi WSW 8.1 mph - N/A   Overcast
9:35 AM 66.7 °F 65.3 °F 95% 29.85 in 10.0 mi SW 8.1 mph - N/A   Overcast
9:55 AM 67.3 °F 65.1 °F 93% 29.86 in 10.0 mi WSW 8.1 mph - N/A   Overcast
10:15 AM 69.1 °F 65.7 °F 89% 29.86 in 10.0 mi WSW 6.9 mph - N/A   Scattered Clouds
10:35 AM 69.8 °F 66.4 °F 89% 29.86 in 10.0 mi WSW 5.8 mph - N/A   Scattered Clouds
10:55 AM 70.7 °F 66.0 °F 85% 29.86 in 10.0 mi WSW 8.1 mph - N/A   Scattered Clouds
11:15 AM 71.8 °F 66.0 °F 82% 29.86 in 10.0 mi WSW 8.1 mph - N/A   Scattered Clouds
11:35 AM 72.7 °F 66.0 °F 80% 29.86 in 10.0 mi West 10.4 mph - N/A   Mostly Cloudy
11:55 AM 73.6 °F 65.7 °F 76% 29.86 in 10.0 mi West 8.1 mph - N/A   Scattered Clouds
12:15 PM 74.3 °F 65.5 °F 74% 29.85 in 10.0 mi West 11.5 mph - N/A   Scattered Clouds
12:35 PM 75.6 °F 65.7 °F 71% 29.85 in 10.0 mi West 12.7 mph - N/A   Scattered Clouds
12:55 PM 75.0 °F 62.4 °F 65% 29.85 in 10.0 mi West 12.7 mph 17.3 mph N/A   Mostly Cloudy
1:15 PM 76.5 °F 63.0 °F 63% 29.85 in 10.0 mi West 16.1 mph 23.0 mph N/A   Scattered Clouds
1:35 PM 76.5 °F 63.0 °F 63% 29.85 in 10.0 mi WSW 13.8 mph - N/A   Scattered Clouds
1:55 PM 76.6 °F 60.8 °F 58% 29.85 in 10.0 mi West 13.8 mph - N/A   Clear
2:15 PM 77.0 °F 59.9 °F 55% 29.85 in 10.0 mi West 13.8 mph 20.7 mph N/A   Scattered Clouds
2:35 PM 77.0 °F 62.1 °F 60% 29.86 in 10.0 mi West 17.3 mph 20.7 mph N/A   Scattered Clouds
2:55 PM 77.0 °F 60.3 °F 56% 29.86 in 10.0 mi West 15.0 mph - N/A   Scattered Clouds
3:15 PM 77.4 °F 60.6 °F 56% 29.85 in 10.0 mi WSW 17.3 mph 23.0 mph N/A   Scattered Clouds
3:35 PM 76.5 °F 59.7 °F 56% 29.86 in 10.0 mi West 17.3 mph 20.7 mph N/A   Mostly Cloudy
3:55 PM 77.0 °F 59.7 °F 55% 29.86 in 10.0 mi West 17.3 mph 21.9 mph N/A   Scattered Clouds
4:15 PM 74.7 °F 60.3 °F 61% 29.85 in 10.0 mi West 12.7 mph - N/A   Clear
4:35 PM 76.1 °F 59.5 °F 56% 29.85 in 10.0 mi West 13.8 mph 17.3 mph N/A   Scattered Clouds
4:55 PM 75.7 °F 60.6 °F 59% 29.85 in 10.0 mi West 13.8 mph - N/A   Mostly Cloudy
5:15 PM 75.9 °F 60.4 °F 59% 29.86 in 10.0 mi West 16.1 mph - N/A   Scattered Clouds
5:35 PM 75.2 °F 59.0 °F 57% 29.86 in 10.0 mi West 16.1 mph 20.7 mph N/A   Scattered Clouds
5:55 PM 74.5 °F 58.3 °F 57% 29.87 in 10.0 mi West 13.8 mph 23.0 mph N/A   Scattered Clouds
6:15 PM 73.8 °F 58.5 °F 59% 29.87 in 10.0 mi West 10.4 mph - N/A   Mostly Cloudy
6:35 PM 72.7 °F 58.1 °F 60% 29.87 in 10.0 mi West 11.5 mph - N/A   Scattered Clouds
6:55 PM 70.9 °F 57.7 °F 63% 29.88 in 10.0 mi West 10.4 mph - N/A   Clear
7:15 PM 69.3 °F 57.2 °F 65% 29.89 in 10.0 mi West 9.2 mph - N/A   Clear
7:35 PM 67.1 °F 58.1 °F 73% 29.89 in 10.0 mi West 8.1 mph - N/A   Scattered Clouds
7:55 PM 66.0 °F 58.3 °F 76% 29.90 in 10.0 mi SW 6.9 mph - N/A   Scattered Clouds
8:15 PM 64.4 °F 58.3 °F 80% 29.90 in 10.0 mi WSW 5.8 mph - N/A   Mostly Cloudy
8:35 PM 63.3 °F 57.6 °F 81% 29.91 in 10.0 mi SW 6.9 mph - N/A   Scattered Clouds
8:55 PM 63.7 °F 56.7 °F 78% 29.92 in 10.0 mi SW 5.8 mph - N/A   Mostly Cloudy
9:15 PM 63.1 °F 57.4 °F 81% 29.92 in 10.0 mi WSW 5.8 mph - N/A   Overcast
9:35 PM 61.7 °F 58.5 °F 89% 29.93 in 10.0 mi WSW 4.6 mph - N/A   Mostly Cloudy
9:55 PM 61.5 °F 58.8 °F 91% 29.93 in 10.0 mi SW 4.6 mph - N/A   Mostly Cloudy
10:15 PM 60.4 °F 58.3 °F 93% 29.93 in 10.0 mi WSW 5.8 mph - N/A   Scattered Clouds
10:35 PM 59.9 °F 57.6 °F 92% 29.93 in 10.0 mi WSW 5.8 mph - N/A   Clear
10:55 PM 59.0 °F 57.2 °F 94% 29.93 in 10.0 mi SW 5.8 mph - N/A   Clear
11:15 PM 58.6 °F 56.8 °F 94% 29.93 in 10.0 mi SW 6.9 mph - N/A   Clear
11:35 PM 58.5 °F 56.7 °F 94% 29.92 in 10.0 mi SW 5.8 mph - N/A   Clear
11:55 PM 57.9 °F 56.3 °F 94% 29.93 in 10.0 mi SW 5.8 mph - N/A   Clear